Total_Precipitation_Accumulation
0.16 0.21 0.43 0.45 0.43 0.38 0.35 0.31 0.32 0.31 0.31 0.33 0.35 0.37 0.36 0.31 0.27 0.28 0.27 0.31 0.40 0.51 0.60 0.61 0.58 0.55 0.50 0.44 0.30 0.18 0.15 0.13 0.11 0.09 0.09 0.13 0.18 0.19 0.15 0.14 0.16 0.18 0.21
0.14 0.22 0.43 0.47 0.49 0.48 0.47 0.37 0.31 0.32 0.32 0.35 0.40 0.41 0.40 0.35 0.32 0.27 0.29 0.35 0.43 0.50 0.55 0.56 0.47 0.38 0.35 0.30 0.20 0.13 0.11 0.08 0.06 0.04 0.03 0.05 0.10 0.15 0.15 0.13 0.16 0.22 0.24
0.17 0.26 0.41 0.48 0.52 0.55 0.52 0.42 0.32 0.31 0.35 0.40 0.43 0.44 0.44 0.41 0.34 0.34 0.35 0.39 0.43 0.49 0.49 0.44 0.31 0.23 0.20 0.16 0.13 0.11 0.10 0.08 0.05 0.04 0.05 0.08 0.10 0.16 0.17 0.14 0.19 0.24 0.27
0.24 0.36 0.42 0.52 0.56 0.58 0.57 0.49 0.41 0.36 0.39 0.44 0.48 0.51 0.53 0.47 0.39 0.41 0.40 0.39 0.42 0.42 0.35 0.30 0.25 0.20 0.15 0.12 0.11 0.11 0.11 0.08 0.06 0.06 0.10 0.11 0.12 0.21 0.23 0.21 0.25 0.27 0.26
0.37 0.46 0.56 0.62 0.64 0.65 0.61 0.57 0.52 0.46 0.49 0.52 0.52 0.56 0.55 0.54 0.49 0.50 0.43 0.37 0.34 0.32 0.28 0.25 0.22 0.18 0.14 0.12 0.12 0.13 0.12 0.09 0.06 0.07 0.10 0.11 0.14 0.27 0.28 0.24 0.24 0.23 0.22
0.54 0.62 0.78 0.85 0.84 0.76 0.70 0.67 0.63 0.57 0.57 0.58 0.59 0.60 0.60 0.61 0.59 0.55 0.45 0.34 0.26 0.22 0.22 0.22 0.19 0.17 0.16 0.13 0.12 0.12 0.11 0.09 0.07 0.07 0.07 0.10 0.17 0.30 0.30 0.26 0.26 0.26 0.27
0.64 0.77 0.97 1.07 1.04 0.88 0.78 0.75 0.75 0.73 0.74 0.71 0.67 0.70 0.74 0.69 0.63 0.56 0.43 0.30 0.22 0.18 0.18 0.19 0.18 0.18 0.19 0.15 0.13 0.11 0.10 0.08 0.06 0.05 0.06 0.09 0.18 0.32 0.32 0.31 0.31 0.32 0.31
0.75 0.86 1.08 1.19 1.12 1.01 0.96 0.88 0.88 0.91 0.86 0.82 0.79 0.85 0.87 0.80 0.65 0.55 0.44 0.32 0.24 0.20 0.20 0.20 0.20 0.21 0.20 0.19 0.17 0.13 0.08 0.06 0.05 0.05 0.06 0.09 0.16 0.28 0.30 0.28 0.29 0.30 0.29
0.99 1.09 1.24 1.25 1.17 1.05 0.96 0.94 0.93 0.99 1.00 0.90 0.83 0.87 0.88 0.82 0.67 0.56 0.42 0.35 0.28 0.25 0.24 0.22 0.22 0.21 0.20 0.21 0.19 0.14 0.08 0.05 0.05 0.05 0.06 0.09 0.15 0.26 0.27 0.27 0.26 0.26 0.26
1.39 1.39 1.39 1.41 1.32 1.17 1.00 1.01 0.98 0.93 0.90 0.91 0.86 0.75 0.69 0.66 0.59 0.55 0.39 0.35 0.30 0.28 0.25 0.23 0.22 0.22 0.19 0.16 0.16 0.13 0.09 0.06 0.05 0.05 0.07 0.08 0.12 0.21 0.23 0.25 0.24 0.25 0.27
1.75 1.72 1.58 1.59 1.50 1.43 1.28 1.17 1.16 1.03 0.90 0.87 0.83 0.72 0.67 0.69 0.64 0.51 0.32 0.29 0.28 0.27 0.24 0.22 0.21 0.21 0.18 0.13 0.12 0.10 0.08 0.06 0.05 0.06 0.07 0.07 0.12 0.19 0.25 0.28 0.26 0.26 0.27
1.90 1.88 1.77 1.68 1.65 1.63 1.40 1.29 1.31 1.16 0.98 0.88 0.80 0.77 0.72 0.70 0.66 0.53 0.41 0.30 0.31 0.27 0.24 0.25 0.24 0.22 0.18 0.14 0.12 0.10 0.09 0.07 0.09 0.07 0.07 0.07 0.12 0.19 0.27 0.30 0.27 0.26 0.27
2.17 2.12 2.01 1.88 1.77 1.73 1.66 1.39 1.32 1.21 1.10 1.02 0.89 0.85 0.82 0.80 0.73 0.65 0.59 0.45 0.40 0.33 0.30 0.29 0.30 0.23 0.20 0.19 0.17 0.13 0.11 0.09 0.08 0.07 0.07 0.07 0.12 0.20 0.27 0.30 0.28 0.28 0.28
2.24 2.27 2.14 2.02 1.91 1.81 1.74 1.62 1.42 1.28 1.14 1.04 0.93 0.82 0.86 0.86 0.76 0.65 0.58 0.50 0.45 0.37 0.34 0.33 0.30 0.24 0.20 0.19 0.17 0.16 0.14 0.12 0.10 0.10 0.09 0.07 0.11 0.17 0.25 0.30 0.32 0.33 0.34
2.23 2.33 2.30 2.18 2.03 1.88 1.79 1.73 1.59 1.32 1.12 1.09 1.07 0.94 0.83 0.77 0.69 0.63 0.54 0.52 0.48 0.44 0.42 0.38 0.33 0.27 0.24 0.21 0.17 0.14 0.13 0.12 0.10 0.11 0.10 0.06 0.07 0.12 0.19 0.26 0.35 0.41 0.47
2.18 2.29 2.35 2.42 2.28 2.06 1.82 1.69 1.65 1.50 1.30 1.23 1.20 1.07 0.99 0.87 0.74 0.64 0.54 0.49 0.47 0.43 0.40 0.40 0.37 0.33 0.30 0.25 0.20 0.16 0.13 0.12 0.11 0.10 0.10 0.08 0.07 0.09 0.12 0.19 0.30 0.42 0.54
2.28 2.28 2.35 2.44 2.50 2.36 2.11 1.86 1.75 1.61 1.46 1.32 1.26 1.27 1.20 1.07 0.90 0.78 0.65 0.52 0.47 0.47 0.45 0.45 0.47 0.40 0.31 0.26 0.22 0.20 0.17 0.16 0.14 0.13 0.12 0.10 0.10 0.10 0.10 0.16 0.25 0.37 0.51
2.58 2.49 2.51 2.43 2.50 2.53 2.39 2.14 1.93 1.75 1.54 1.33 1.18 1.21 1.26 1.18 1.06 0.96 0.87 0.74 0.64 0.61 0.60 0.53 0.49 0.48 0.37 0.30 0.25 0.22 0.21 0.19 0.17 0.15 0.13 0.11 0.10 0.10 0.10 0.12 0.17 0.26 0.37
2.69 2.72 2.76 2.65 2.46 2.50 2.56 2.42 2.16 1.89 1.65 1.46 1.25 1.13 1.17 1.20 1.12 1.01 0.91 0.91 0.90 0.80 0.68 0.62 0.51 0.51 0.47 0.38 0.33 0.28 0.24 0.21 0.18 0.17 0.15 0.14 0.12 0.11 0.11 0.12 0.13 0.15 0.22
2.69 2.70 2.73 2.76 2.73 2.68 2.71 2.70 2.45 2.12 1.84 1.63 1.47 1.32 1.23 1.24 1.24 1.17 1.04 0.99 1.01 0.98 0.88 0.76 0.65 0.57 0.53 0.51 0.44 0.34 0.28 0.24 0.20 0.19 0.17 0.17 0.15 0.14 0.13 0.13 0.13 0.13 0.15
2.53 2.59 2.54 2.56 2.63 2.69 2.74 2.67 2.49 2.20 2.03 1.82 1.64 1.54 1.43 1.31 1.29 1.31 1.22 1.18 1.19 1.15 1.09 1.05 0.96 0.82 0.68 0.65 0.60 0.45 0.32 0.25 0.22 0.18 0.19 0.19 0.18 0.19 0.19 0.18 0.18 0.18 0.19
2.11 2.43 2.44 2.47 2.47 2.46 2.45 2.59 2.64 2.48 2.24 2.04 1.85 1.66 1.53 1.39 1.31 1.32 1.35 1.32 1.25 1.27 1.25 1.21 1.12 0.99 0.87 0.81 0.75 0.68 0.51 0.35 0.25 0.21 0.19 0.20 0.21 0.22 0.22 0.22 0.23 0.24 0.25
1.83 2.21 2.38 2.45 2.47 2.39 2.47 2.76 2.91 2.83 2.50 2.23 2.01 1.79 1.63 1.53 1.45 1.34 1.27 1.30 1.29 1.30 1.31 1.30 1.31 1.29 1.17 1.05 0.95 0.96 0.79 0.55 0.39 0.29 0.24 0.23 0.25 0.27 0.27 0.27 0.28 0.30 0.31
1.59 1.88 2.08 2.34 2.48 2.50 2.55 2.70 2.68 2.50 2.26 2.03 1.99 1.91 1.78 1.68 1.56 1.48 1.39 1.32 1.30 1.30 1.29 1.35 1.39 1.40 1.41 1.29 1.17 1.07 0.96 0.78 0.71 0.52 0.37 0.34 0.36 0.36 0.37 0.34 0.33 0.33 0.34
1.41 1.68 1.79 1.97 2.19 2.33 2.38 2.52 2.62 2.43 2.18 2.01 1.95 1.89 1.80 1.74 1.62 1.51 1.41 1.38 1.35 1.33 1.32 1.35 1.41 1.42 1.43 1.42 1.34 1.23 1.15 0.98 0.85 0.79 0.61 0.48 0.46 0.43 0.44 0.43 0.40 0.39 0.38
1.18 1.48 1.64 1.80 1.96 2.13 2.18 2.30 2.47 2.31 2.09 1.87 1.77 1.73 1.67 1.63 1.54 1.43 1.35 1.30 1.27 1.26 1.26 1.24 1.29 1.34 1.36 1.33 1.29 1.22 1.20 1.12 0.97 0.94 0.85 0.67 0.63 0.56 0.56 0.58 0.54 0.50 0.47